Home > Weather > Trois-Rivieres > Past weeks

Flag for Canada Weather for the Past 2 Weeks in Trois-Rivieres, Quebec, Canada

Now
44 °F

Quite cool.


Feels Like: 39 °F
Forecast: 37 / 58 °F
Wind: 8 mph from Northeast

Location: Trois Rivieres

Current Time: May 2, 2016 at 9:27:34 PM

Latest Report: May 2, 2016 at 8:00 PM


Visibility: N/A

Pressure: 29.98 "Hg

Humidity: 83%

Dew Point: 39 °F

Location of Trois-RivieresLocation

Historic Weather in Trois-Rivieres — Graph

°F

Trois-Rivieres Temperature Yesterday

Maximum temperature yesterday: 57 °F (at 3:00 PM)
Minimum temperature yesterday: 38 °F (at 5:00 AM)
Average temperature yesterday: 47 °F

High & Low Weather Summary for the Past Weeks

 TemperatureHumidityPressure
High61 °F (Apr 17, 9:00 PM)100% (Apr 22, 1:00 PM)30.37 "Hg (Apr 22, 1:00 PM)
Low26 °F (Apr 27, 8:00 AM)15% (Apr 30, 7:00 PM)29.75 "Hg (Apr 22, 2:00 PM)
Average41 °F51%30.08 "Hg
* Reported Apr 17 8:00 PM — May 2 8:00 PM, Trois-Rivieres, Weather by CustomWeather, © 2016

Note: Actual official high and low records may vary slightly from our data, if they occured in-between our weather recording intervals... More about our weather records

Advertising

Trois-Rivieres Weather History for the Previous 24 Hours

Scroll right to see more
 ConditionsComfort  
Time TempWeatherWind HumidityBarometerVisibility
8:00 PM
Mon, May 2
44 °FQuite cool.8 mph83%29.98 "HgN/A
7:00 PM45 °FQuite cool.7 mph85%29.98 "HgN/A
6:00 PM45 °FCool.8 mph84%29.97 "HgN/A
5:00 PM45 °FCool.12 mph84%29.98 "HgN/A
4:00 PM46 °FCool.8 mph77%29.98 "HgN/A
3:00 PM46 °FCool.7 mph78%29.98 "HgN/A
2:00 PM46 °FCool.7 mph81%29.99 "HgN/A
1:00 PM46 °FCool.8 mph82%30.00 "HgN/A
12:00 PM46 °FCool.7 mph82%30.02 "HgN/A
11:00 AM46 °FCool.9 mph80%30.03 "HgN/A
10:00 AM45 °FCool.8 mph81%30.04 "HgN/A
9:00 AM45 °FQuite cool.9 mph90%30.05 "HgN/A
8:00 AM43 °FQuite cool.7 mph93%30.04 "HgN/A
7:00 AM44 °FQuite cool.7 mph92%30.08 "HgN/A
6:00 AM43 °FQuite cool.8 mph96%30.05 "HgN/A
5:00 AM43 °FQuite cool.6 mph97%30.03 "HgN/A
4:00 AM43 °FQuite cool.6 mph96%30.05 "HgN/A
3:00 AM45 °FQuite cool.5 mph93%30.06 "HgN/A
2:00 AM45 °FCool.2 mph92%30.06 "HgN/A
1:00 AM46 °FCool.3 mph90%30.08 "HgN/A
12:00 AM46 °FCool.6 mph89%30.09 "HgN/A
11:00 PM
Sun, May 1
46 °FCool.7 mph90%30.10 "HgN/A
10:00 PM45 °FCool.5 mph96%30.12 "HgN/A
9:00 PM47 °FCool.1 mph86%30.12 "HgN/A
Weather by CustomWeather, © 2016

See weather overviewHow to use our weather pages